• în Republica Moldova
  • Lista ţărilor
  • Pe 7 zile
  • Temperatura apei
  • Hartă satelitară
  • Meteo pe hartă
  • Widget-uri
  • user-avatar
    Intrare

    Meteo pe oră la Kalgoorlie

    Astăzi, 27 Martie, Luni

    Timp Temperatura Precipitaţii Vânt Presiune Umiditate
    00:00 +17°C° 0 mm 3 m/s 731 mmHg 54%
    01:00 +15°C° 0 mm 4 m/s 731 mmHg 56%
    02:00 +15°C° 0 mm 4 m/s 732 mmHg 59%
    03:00 +14°C° 0 mm 4 m/s 732 mmHg 62%
    04:00 +14°C° 0 mm 4 m/s 732 mmHg 65%
    05:00 +13°C° 0 mm 3 m/s 733 mmHg 68%
    06:00 +14°C° 0 mm 3 m/s 733 mmHg 65%
    07:00 +14°C° 0 mm 3 m/s 733 mmHg 62%
    08:00 +16°C° 0 mm 3 m/s 734 mmHg 54%
    09:00 +17°C° 0 mm 2 m/s 734 mmHg 49%
    10:00 +19°C° 0 mm 2 m/s 733 mmHg 43%
    11:00 +21°C° 0 mm 1 m/s 733 mmHg 38%
    12:00 +22°C° 0 mm 1 m/s 733 mmHg 34%
    13:00 +23°C° 0 mm 1 m/s 732 mmHg 31%
    14:00 +25°C° 0 mm 1 m/s 732 mmHg 27%
    15:00 +25°C° 0 mm 1 m/s 732 mmHg 27%
    16:00 +25°C° 0 mm 1 m/s 732 mmHg 27%
    17:00 +25°C° 0 mm 1 m/s 732 mmHg 27%
    18:00 +24°C° 0 mm 2 m/s 732 mmHg 30%
    19:00 +21°C° 0 mm 2 m/s 732 mmHg 32%
    20:00 +20°C° 0 mm 2 m/s 732 mmHg 35%
    21:00 +19°C° 0 mm 2 m/s 732 mmHg 37%
    22:00 +19°C° 0 mm 2 m/s 732 mmHg 39%
    23:00 +18°C° 0 mm 2 m/s 732 mmHg 40%

    Mâine, 28 Martie, Marţi

    Timp Temperatura Precipitaţii Vânt Presiune Umiditate
    00:00 +18°C° 0 mm 2 m/s 731 mmHg 43%
    01:00 +17°C° 0 mm 2 m/s 731 mmHg 45%
    02:00 +17°C° 0 mm 2 m/s 731 mmHg 47%
    03:00 +17°C° 0 mm 2 m/s 731 mmHg 49%
    04:00 +16°C° 0 mm 2 m/s 730 mmHg 51%
    05:00 +16°C° 0 mm 2 m/s 730 mmHg 53%
    06:00 +17°C° 0 mm 2 m/s 731 mmHg 50%
    07:00 +18°C° 0 mm 2 m/s 731 mmHg 48%
    08:00 +19°C° 0 mm 2 m/s 731 mmHg 45%
    09:00 +21°C° 0 mm 2 m/s 731 mmHg 41%
    10:00 +24°C° 0 mm 2 m/s 731 mmHg 36%
    11:00 +26°C° 0 mm 2 m/s 731 mmHg 32%
    12:00 +27°C° 0 mm 2 m/s 730 mmHg 29%
    13:00 +28°C° 0 mm 3 m/s 730 mmHg 26%
    14:00 +29°C° 0 mm 3 m/s 729 mmHg 24%
    15:00 +29°C° 0 mm 2 m/s 729 mmHg 24%
    16:00 +29°C° 0 mm 2 m/s 729 mmHg 25%
    17:00 +29°C° 0 mm 2 m/s 729 mmHg 26%
    18:00 +27°C° 0 mm 2 m/s 729 mmHg 28%
    19:00 +25°C° 0 mm 3 m/s 730 mmHg 30%
    20:00 +24°C° 0 mm 3 m/s 730 mmHg 33%
    21:00 +22°C° 0 mm 4 m/s 730 mmHg 41%
    22:00 +20°C° 0 mm 6 m/s 731 mmHg 49%
    23:00 +18°C° 0 mm 7 m/s 731 mmHg 57%

    Poimâine, 29 Martie, Miercuri

    Timp Temperatura Precipitaţii Vânt Presiune Umiditate
    00:00 +17°C° 0 mm 7 m/s 731 mmHg 63%
    01:00 +16°C° 0 mm 7 m/s 731 mmHg 69%
    02:00 +15°C° 0 mm 6 m/s 732 mmHg 75%
    03:00 +15°C° 0 mm 6 m/s 732 mmHg 76%
    04:00 +15°C° 0 mm 6 m/s 732 mmHg 77%
    05:00 +14°C° 0 mm 6 m/s 733 mmHg 78%
    06:00 +15°C° 0 mm 6 m/s 733 mmHg 77%
    07:00 +15°C° 0 mm 7 m/s 734 mmHg 76%
    08:00 +15°C° 0 mm 8 m/s 735 mmHg 75%
    09:00 +16°C° 0 mm 8 m/s 735 mmHg 69%
    10:00 +17°C° 0 mm 7 m/s 735 mmHg 62%
    11:00 +18°C° 0 mm 7 m/s 736 mmHg 56%
    12:00 +20°C° 0 mm 6 m/s 735 mmHg 49%
    13:00 +22°C° 0 mm 6 m/s 735 mmHg 43%
    14:00 +23°C° 0 mm 6 m/s 734 mmHg 36%
    15:00 +22°C° 0 mm 6 m/s 734 mmHg 35%
    16:00 +22°C° 0 mm 6 m/s 734 mmHg 34%
    17:00 +22°C° 0 mm 6 m/s 734 mmHg 33%
    18:00 +20°C° 0 mm 6 m/s 735 mmHg 37%
    19:00 +19°C° 0 mm 5 m/s 735 mmHg 41%
    20:00 +17°C° 0 mm 5 m/s 736 mmHg 44%
    21:00 +16°C° 0 mm 6 m/s 736 mmHg 50%
    22:00 +15°C° 0 mm 6 m/s 736 mmHg 55%
    23:00 +14°C° 0 mm 6 m/s 736 mmHg 60%

    30 Martie, Joi

    Timp Temperatura Precipitaţii Vânt Presiune Umiditate
    00:00 +13°C° 0 mm 6 m/s 736 mmHg 64%
    01:00 +13°C° 0 mm 6 m/s 736 mmHg 68%
    02:00 +11°C° 0 mm 6 m/s 736 mmHg 71%
    03:00 +11°C° 0 mm 6 m/s 736 mmHg 74%
    04:00 +10°C° 0 mm 6 m/s 736 mmHg 76%
    05:00 +10°C° 0 mm 5 m/s 736 mmHg 79%
    06:00 +11°C° 0 mm 6 m/s 736 mmHg 76%
    07:00 +11°C° 0 mm 6 m/s 736 mmHg 74%
    08:00 +12°C° 0 mm 7 m/s 737 mmHg 72%
    09:00 +14°C° 0 mm 6 m/s 736 mmHg 63%
    10:00 +16°C° 0 mm 6 m/s 736 mmHg 54%
    11:00 +19°C° 0 mm 6 m/s 736 mmHg 46%
    12:00 +20°C° 0 mm 5 m/s 735 mmHg 41%
    13:00 +21°C° 0 mm 5 m/s 735 mmHg 37%
    14:00 +23°C° 0 mm 4 m/s 734 mmHg 33%
    15:00 +22°C° 0 mm 3 m/s 734 mmHg 33%
    16:00 +22°C° 0 mm 3 m/s 734 mmHg 33%
    17:00 +22°C° 0 mm 3 m/s 734 mmHg 33%
    18:00 +21°C° 0 mm 3 m/s 734 mmHg 37%
    19:00 +20°C° 0 mm 3 m/s 735 mmHg 40%
    20:00 +18°C° 0 mm 3 m/s 735 mmHg 44%
    21:00 +18°C° 0 mm 3 m/s 735 mmHg 47%
    22:00 +17°C° 0 mm 3 m/s 735 mmHg 49%
    23:00 +17°C° 0 mm 3 m/s 735 mmHg 52%

    31 Martie, Vineri

    Timp Temperatura Precipitaţii Vânt Presiune Umiditate
    00:00 +16°C° 0 mm 3 m/s 734 mmHg 54%
    01:00 +16°C° 0 mm 3 m/s 734 mmHg 56%
    02:00 +14°C° 0 mm 3 m/s 734 mmHg 58%
    03:00 +14°C° 0 mm 3 m/s 734 mmHg 59%
    04:00 +14°C° 0 mm 3 m/s 734 mmHg 60%
    05:00 +13°C° 0 mm 3 m/s 734 mmHg 61%
    06:00 +14°C° 0 mm 3 m/s 735 mmHg 57%
    07:00 +16°C° 0 mm 3 m/s 735 mmHg 54%
    08:00 +17°C° 0 mm 3 m/s 736 mmHg 50%
    09:00 +19°C° 0 mm 3 m/s 736 mmHg 44%
    10:00 +21°C° 0 mm 3 m/s 736 mmHg 39%
    11:00 +24°C° 0 mm 3 m/s 735 mmHg 34%
    12:00 +24°C° 0 mm 3 m/s 735 mmHg 31%
    13:00 +25°C° 0 mm 3 m/s 735 mmHg 29%
    14:00 +26°C° 0 mm 3 m/s 734 mmHg 27%
    15:00 +26°C° 0 mm 4 m/s 734 mmHg 27%
    16:00 +26°C° 0 mm 4 m/s 734 mmHg 28%
    17:00 +25°C° 0 mm 4 m/s 734 mmHg 29%
    18:00 +23°C° 0 mm 4 m/s 735 mmHg 32%
    19:00 +21°C° 0 mm 4 m/s 735 mmHg 36%
    20:00 +20°C° 0 mm 4 m/s 736 mmHg 40%
    21:00 +19°C° 0 mm 4 m/s 736 mmHg 42%
    22:00 +19°C° 0 mm 4 m/s 736 mmHg 44%
    23:00 +18°C° 0 mm 4 m/s 736 mmHg 46%

    1 Aprilie, Sâmbătă

    Timp Temperatura Precipitaţii Vânt Presiune Umiditate
    00:00 +17°C° 0 mm 4 m/s 736 mmHg 48%
    01:00 +17°C° 0 mm 4 m/s 736 mmHg 51%
    02:00 +15°C° 0 mm 4 m/s 736 mmHg 53%
    03:00 +15°C° 0 mm 4 m/s 736 mmHg 58%
    04:00 +14°C° 0 mm 4 m/s 736 mmHg 63%
    05:00 +14°C° 0 mm 5 m/s 737 mmHg 68%
    06:00 +14°C° 0 mm 5 m/s 737 mmHg 67%
    07:00 +15°C° 0 mm 6 m/s 737 mmHg 66%
    08:00 +15°C° 0 mm 6 m/s 738 mmHg 65%
    09:00 +17°C° 0 mm 6 m/s 738 mmHg 57%
    10:00 +20°C° 0 mm 6 m/s 737 mmHg 48%
    11:00 +22°C° 0 mm 6 m/s 737 mmHg 40%
    12:00 +23°C° 0 mm 6 m/s 737 mmHg 37%
    13:00 +23°C° 0 mm 6 m/s 736 mmHg 35%
    14:00 +24°C° 0 mm 6 m/s 736 mmHg 32%
    15:00 +23°C° 0 mm 6 m/s 736 mmHg 33%
    16:00 +23°C° 0 mm 6 m/s 736 mmHg 35%
    17:00 +22°C° 0 mm 6 m/s 736 mmHg 36%
    18:00 +21°C° 0 mm 6 m/s 736 mmHg 41%
    19:00 +20°C° 0 mm 6 m/s 737 mmHg 46%
    20:00 +17°C° 0 mm 6 m/s 737 mmHg 52%
    21:00 +17°C° 0 mm 6 m/s 737 mmHg 54%
    22:00 +16°C° 0 mm 6 m/s 737 mmHg 57%
    23:00 +15°C° 0 mm 6 m/s 737 mmHg 60%
    Arată mai mult